Location: Clifton Park
(41.4873°N, 81.8024°W)
Time: 09:44:15
(UTC+00:00)

STARLINK-57 - Pass Details

Date: 21 January 2020
Orbit: 528 x 531 km, 53.0° (Epoch: 19 February)

Event Time Altitude Azimuth Distance (km) Brightness Sun altitude
Exits shadow 10:38:24 62° 142° (SE) 597 3.8 -24.1°
Maximum altitude 10:38:27 62° 138° (SE) 596 3.8 -24.1°
Drops below altitude 10° 10:42:26 10° 58° (ENE) 1,777 6.9 -23.4°
Sets 10:44:40 0° 55° (NE) 2,671 7.8 -22.9°
